Location: Scenic Heights
(38.0166°N, 120.2566°W)
Time: 15:28:14
(UTC+00:00)

Cosmos 1939 Rocket - Pass Details

Date: 03 August 2024
Orbit: 511 x 553 km, 97.5° (Epoch: 08 September)

Event Time Altitude Azimuth Distance (km) Brightness Sun altitude
Rises 12:24:17 0° 15° (NNE) 2,634 7.0 -8.3°
Reaches altitude 10° 12:26:24 10° 19° (NNE) 1,746 6.2 -7.9°
Maximum altitude 12:30:07 61° 100° (E) 589 3.2 -7.3°
Drops below altitude 10° 12:33:51 10° 182° (S) 1,750 5.1 -6.6°
Sets 12:35:59 0° 186° (S) 2,641 6.0 -6.2°
